AirNav   ProFlight Series 2 Aviation Headset
 
 1067 users online  

10VA Nashs Airport
Appomattox, Virginia, USA

GOING TO APPOMATTOX?


FAA INFORMATION EFFECTIVE 16 JULY 2020

Location

FAA Identifier: 10VA
Lat/Long: 37-23-10.5200N 078-48-47.0470W
37-23.175333N 078-48.784117W
37.3862556,-78.8130686
(estimated)
Elevation: 785 ft. / 239 m (estimated)
Variation: 07W (1985)
From city: 4 miles SW of APPOMATTOX, VA
Time zone: UTC -4 (UTC -5 during Standard Time)
Zip code: 24522

Airport Operations

Airport use: Private use. Permission required prior to landing
Activation date: 12/1983
Control tower: no
ARTCC: WASHINGTON CENTER
FSS: LEESBURG FLIGHT SERVICE STATION
Attendance: UNATNDD
Segmented circle: no

Airport Communications

WX AWOS-3 at 0V4 (18 nm SW): 120.575 (434-283-7826)
WX AWOS-3 at FVX (18 nm E): 132.725 (434-392-9718)
WX ASOS at LYH (19 nm W): PHONE 434-237-0749

Nearby radio navigation aids

VOR radial/distance  VOR name  Freq  Var
LYHr074/21.7LYNCHBURG VOR/DME109.2005W
MOLr161/33.9MONTEBELLO VOR/DME115.3005W

 
NDB name  Hdg/Dist  Freq  Var  ID
FARMVILLE285/18.036709WFVX ..-. ...- -..-
BLACKSTONE302/39.932609WBKT -... -.- -

Airport Services

Runway Information

Runway 5/23

Dimensions: 1800 x 20 ft. / 549 x 6 m
Surface: asphalt
RUNWAY 5  RUNWAY 23
Traffic pattern: leftleft

Airport Ownership and Management from official FAA records

Ownership: Privately-owned
Owner: JEANNE N AMOS & GRAY S NASH
174A CLOVER LANE
APPOMATTOX, VA 24522
Phone (434) 352-2366
Manager: JEANNE N AMOS & GRAY S NASH
174 A CLOVER LANE
APPOMATTOX, VA 24522
Phone 434-352-2366

Additional Remarks

FOR CD CTC ROANOKE APCH AT 540-563-1307.

Instrument Procedures

There are no published instrument procedures at 10VA.

Some nearby airports with instrument procedures:

W24 - Falwell Airport (15 nm W)
0V4 - Brookneal/Campbell County Airport (18 nm SW)
KFVX - Farmville Regional Airport (18 nm E)
KLYH - Lynchburg Regional Airport/Preston Glenn Field (19 nm W)
W90 - New London Airport (26 nm W)
 
Loc | Ops | Rwys | IFR | FBO | Links
Com | Nav | Svcs | Stats | Notes
Area around 10VA (Nashs Airport)
 
Road maps at: MapQuest Bing Google
 
Aerial photo
No photo
 
Sectional chart

 
Airport distance calculator
Flying to Nashs Airport? Find the distance to fly.

From to 10VA

Sunrise and sunset
Times for 09-Aug-2020
 Local
(UTC-4)
 Zulu
(UTC)
Morning civil twilight06:0010:00
Sunrise06:2810:28
Sunset20:1300:13
Evening civil twilight20:4100:41

Current date and time
Zulu (UTC)  09-Aug-2020 22:45:31
Local (UTC-4)  09-Aug-2020 18:45:31
 
METAR
K0V4 
18nm SW 
092235Z AUTO 11004KT 10SM BKN050 BKN070 BKN080 31/24 A3007 RMK AO1 T03130244
KLYH 
19nm W 
092154Z AUTO 00000KT 10SM CLR 32/19 A3010 RMK AO2 SLP180 T03220189
KFVX 
19nm E 
092235Z AUTO 18004KT 10SM CLR 29/22 A3007 RMK AO2 T02880224
TAF
KLYH 
19nm W 
091744Z 0918/1018 VRB03KT 6SM HZ VCSH SCT030 BKN040 FM092100 VRB03KT P6SM VCSH BKN045 FM100300 00000KT P6SM BKN060 BKN250 TEMPO 1008/1012 5SM BR
NOTAMs
Click for the latest NOTAMs
NOTAMs are issued by the DoD/FAA and will open in a separate window not controlled by AirNav.

 

 
 

Would you like to see your business listed on this page?

 If your business provides an interesting product or service to pilots, flight crews, aircraft, or users of the Nashs Airport, you should consider listing it here.  To start the listing process, click on the button below
 
Add a business
 

Other Pages about Nashs Airport

Update a link
 
Copyright © AirNav, LLC. All rights reserved. Privacy Policy  Contact